• In United Kingdom
  • List of Countries
  • For 7 days
  • Water Temperature
  • Satellite Maps
  • Weather Map
  • Weather Widgets
  • user-avatar
    Login

    Hourly Weather Niczonow

    Today, 24 September, Monday

    Time Temperature Precipitation Wind Pressure Humidity
    00:00 +10°C° 0.5 mm 7 mps 756 mmHg 77%
    01:00 +10°C° 0 mm 8 mps 756 mmHg 77%
    02:00 +9°C° 0.4 mm 8 mps 756 mmHg 77%
    03:00 +8°C° 0.4 mm 9 mps 757 mmHg 77%
    04:00 +8°C° 0.4 mm 9 mps 757 mmHg 76%
    05:00 +8°C° 0.5 mm 9 mps 758 mmHg 75%
    06:00 +8°C° 0.5 mm 9 mps 758 mmHg 74%
    07:00 +8°C° 0 mm 9 mps 759 mmHg 75%
    08:00 +10°C° 0.7 mm 9 mps 760 mmHg 72%
    09:00 +9°C° 0.7 mm 10 mps 760 mmHg 68%
    10:00 +11°C° 0.7 mm 10 mps 761 mmHg 65%
    11:00 +11°C° 0.8 mm 10 mps 762 mmHg 64%
    12:00 +11°C° 0.8 mm 10 mps 762 mmHg 63%
    13:00 +11°C° 0.8 mm 10 mps 763 mmHg 61%
    14:00 +11°C° 0.6 mm 9 mps 763 mmHg 62%
    15:00 +11°C° 0.6 mm 9 mps 764 mmHg 62%
    16:00 +10°C° 0.6 mm 9 mps 764 mmHg 62%
    17:00 +10°C° 0.5 mm 8 mps 765 mmHg 64%
    18:00 +9°C° 0.5 mm 8 mps 765 mmHg 66%
    19:00 +9°C° 0.5 mm 8 mps 766 mmHg 67%
    20:00 +8°C° 0.4 mm 7 mps 766 mmHg 68%
    21:00 +8°C° 0.4 mm 7 mps 767 mmHg 69%
    22:00 +8°C° 0.4 mm 6 mps 768 mmHg 71%
    23:00 +8°C° 0.2 mm 6 mps 768 mmHg 71%

    Tomorrow, 25 September, Tuesday

    Time Temperature Precipitation Wind Pressure Humidity
    00:00 +8°C° 0.2 mm 6 mps 769 mmHg 71%
    01:00 +8°C° 0.2 mm 5 mps 769 mmHg 72%
    02:00 +8°C° 0.1 mm 5 mps 770 mmHg 70%
    03:00 +8°C° 0.1 mm 5 mps 770 mmHg 69%
    04:00 +7°C° 0.1 mm 5 mps 771 mmHg 68%
    05:00 +8°C° 0 mm 5 mps 771 mmHg 67%
    06:00 +8°C° 0 mm 5 mps 772 mmHg 65%
    07:00 +8°C° 0 mm 5 mps 773 mmHg 63%
    08:00 +9°C° 0 mm 5 mps 773 mmHg 57%
    09:00 +12°C° 0 mm 5 mps 774 mmHg 50%
    10:00 +13°C° 0 mm 5 mps 774 mmHg 44%
    11:00 +13°C° 0 mm 5 mps 774 mmHg 45%
    12:00 +13°C° 0 mm 5 mps 775 mmHg 46%
    13:00 +13°C° 0 mm 5 mps 775 mmHg 48%
    14:00 +13°C° 0 mm 5 mps 775 mmHg 49%
    15:00 +13°C° 0 mm 5 mps 775 mmHg 51%
    16:00 +13°C° 0 mm 5 mps 775 mmHg 53%
    17:00 +12°C° 0 mm 5 mps 775 mmHg 56%
    18:00 +10°C° 0 mm 5 mps 775 mmHg 59%
    19:00 +10°C° 0 mm 4 mps 775 mmHg 62%
    20:00 +10°C° 0 mm 4 mps 775 mmHg 64%
    21:00 +8°C° 0 mm 5 mps 775 mmHg 66%
    22:00 +8°C° 0 mm 5 mps 775 mmHg 68%
    23:00 +8°C° 0 mm 5 mps 775 mmHg 69%

    Day after tomorrow, 26 September, Wednesday

    Time Temperature Precipitation Wind Pressure Humidity
    00:00 +8°C° 0 mm 5 mps 775 mmHg 69%
    01:00 +7°C° 0 mm 6 mps 775 mmHg 70%
    02:00 +7°C° 0 mm 6 mps 774 mmHg 70%
    03:00 +6°C° 0 mm 7 mps 774 mmHg 69%
    04:00 +6°C° 0 mm 7 mps 774 mmHg 68%
    05:00 +8°C° 0 mm 7 mps 773 mmHg 68%
    06:00 +7°C° 0 mm 8 mps 773 mmHg 68%
    07:00 +7°C° 0 mm 8 mps 773 mmHg 68%
    08:00 +8°C° 0 mm 9 mps 772 mmHg 64%
    09:00 +10°C° 0 mm 9 mps 772 mmHg 60%
    10:00 +12°C° 0 mm 10 mps 772 mmHg 56%
    11:00 +12°C° 0 mm 10 mps 771 mmHg 54%
    12:00 +13°C° 0 mm 10 mps 771 mmHg 52%
    13:00 +14°C° 0 mm 10 mps 770 mmHg 51%
    14:00 +15°C° 0 mm 9 mps 769 mmHg 51%
    15:00 +15°C° 0 mm 9 mps 769 mmHg 52%
    16:00 +15°C° 0 mm 8 mps 768 mmHg 53%
    17:00 +15°C° 0 mm 8 mps 768 mmHg 53%
    18:00 +15°C° 0 mm 8 mps 768 mmHg 54%
    19:00 +13°C° 0 mm 9 mps 768 mmHg 54%
    20:00 +13°C° 0 mm 9 mps 768 mmHg 56%
    21:00 +13°C° 0 mm 9 mps 768 mmHg 58%
    22:00 +13°C° 0 mm 9 mps 768 mmHg 59%
    23:00 +13°C° 0 mm 9 mps 767 mmHg 64%

    27 September, Thursday

    Time Temperature Precipitation Wind Pressure Humidity
    00:00 +13°C° 0 mm 9 mps 767 mmHg 69%
    01:00 +12°C° 0 mm 9 mps 767 mmHg 74%
    02:00 +12°C° 0 mm 9 mps 767 mmHg 77%
    03:00 +12°C° 0 mm 9 mps 767 mmHg 79%
    04:00 +12°C° 0 mm 9 mps 766 mmHg 82%
    05:00 +13°C° 0 mm 9 mps 766 mmHg 83%
    06:00 +13°C° 0 mm 9 mps 766 mmHg 84%
    07:00 +13°C° 0 mm 9 mps 766 mmHg 84%
    08:00 +13°C° 0 mm 9 mps 767 mmHg 84%
    09:00 +15°C° 0 mm 9 mps 767 mmHg 83%
    10:00 +15°C° 0 mm 9 mps 767 mmHg 82%
    11:00 +16°C° 0 mm 8 mps 767 mmHg 80%
    12:00 +17°C° 0 mm 8 mps 766 mmHg 78%
    13:00 +17°C° 0 mm 8 mps 766 mmHg 76%
    14:00 +18°C° 0 mm 8 mps 766 mmHg 74%
    15:00 +18°C° 0 mm 7 mps 766 mmHg 71%
    16:00 +20°C° 0 mm 6 mps 765 mmHg 69%
    17:00 +19°C° 0 mm 6 mps 765 mmHg 72%
    18:00 +17°C° 0 mm 6 mps 765 mmHg 76%
    19:00 +16°C° 0 mm 5 mps 765 mmHg 80%
    20:00 +16°C° 0 mm 6 mps 765 mmHg 81%
    21:00 +16°C° 0 mm 6 mps 764 mmHg 82%
    22:00 +16°C° 0 mm 7 mps 764 mmHg 83%
    23:00 +16°C° 0 mm 7 mps 764 mmHg 84%

    28 September, Friday

    Time Temperature Precipitation Wind Pressure Humidity
    00:00 +15°C° 0 mm 7 mps 763 mmHg 85%
    01:00 +15°C° 0 mm 7 mps 763 mmHg 85%
    02:00 +14°C° 0 mm 7 mps 763 mmHg 86%
    03:00 +14°C° 0 mm 7 mps 763 mmHg 86%
    04:00 +14°C° 0 mm 7 mps 762 mmHg 87%
    05:00 +14°C° 0 mm 7 mps 763 mmHg 86%
    06:00 +14°C° 0 mm 7 mps 763 mmHg 84%
    07:00 +14°C° 0 mm 7 mps 763 mmHg 83%
    08:00 +14°C° 0 mm 6 mps 763 mmHg 78%
    09:00 +14°C° 0 mm 6 mps 764 mmHg 74%
    10:00 +14°C° 0 mm 6 mps 764 mmHg 69%
    11:00 +14°C° 0 mm 6 mps 764 mmHg 65%
    12:00 +15°C° 0 mm 5 mps 765 mmHg 61%
    13:00 +15°C° 0 mm 5 mps 765 mmHg 56%
    14:00 +15°C° 0 mm 5 mps 765 mmHg 56%
    15:00 +15°C° 0 mm 4 mps 765 mmHg 56%
    16:00 +14°C° 0 mm 4 mps 765 mmHg 56%
    17:00 +14°C° 0 mm 3 mps 765 mmHg 57%
    18:00 +13°C° 0 mm 3 mps 765 mmHg 59%
    19:00 +13°C° 0 mm 2 mps 765 mmHg 60%
    20:00 +13°C° 0 mm 2 mps 766 mmHg 62%
    21:00 +12°C° 0 mm 2 mps 766 mmHg 64%
    22:00 +12°C° 0 mm 2 mps 766 mmHg 66%
    23:00 +10°C° 0 mm 2 mps 766 mmHg 70%

    29 September, Saturday

    Time Temperature Precipitation Wind Pressure Humidity
    00:00 +10°C° 0 mm 1 mps 767 mmHg 73%
    01:00 +10°C° 0 mm 1 mps 767 mmHg 77%
    02:00 +10°C° 0 mm 1 mps 767 mmHg 78%
    03:00 +8°C° 0 mm 2 mps 767 mmHg 78%
    04:00 +8°C° 0 mm 2 mps 767 mmHg 79%
    05:00 +8°C° 0 mm 2 mps 768 mmHg 77%
    06:00 +8°C° 0 mm 2 mps 768 mmHg 76%
    07:00 +9°C° 0 mm 2 mps 768 mmHg 74%
    08:00 +10°C° 0 mm 2 mps 769 mmHg 68%
    09:00 +13°C° 0 mm 2 mps 769 mmHg 61%
    10:00 +14°C° 0 mm 1 mps 769 mmHg 54%
    11:00 +15°C° 0 mm 1 mps 769 mmHg 51%
    12:00 +15°C° 0 mm 1 mps 769 mmHg 48%
    13:00 +16°C° 0 mm 1 mps 769 mmHg 45%
    14:00 +15°C° 0 mm 1 mps 769 mmHg 46%
    15:00 +15°C° 0 mm 1 mps 769 mmHg 47%
    16:00 +15°C° 0 mm 1 mps 769 mmHg 48%
    17:00 +14°C° 0 mm 1 mps 769 mmHg 52%
    18:00 +12°C° 0 mm 1 mps 769 mmHg 56%
    19:00 +11°C° 0 mm 1 mps 769 mmHg 60%
    20:00 +11°C° 0 mm 1 mps 769 mmHg 61%
    21:00 +10°C° 0 mm 2 mps 769 mmHg 62%
    22:00 +9°C° 0 mm 2 mps 769 mmHg 63%
    23:00 +9°C° 0 mm 2 mps 769 mmHg 63%
    Show more